Budapest Ferihegy, Hungary

9:33 PM CEST on August 30, 2016 (GMT +0200)
Ferihegy

Weather History for LHBP - June, 2013

Change the Weather History Date:

Wednesday, June 26, 2013

  Actual Average Record
Temperature  
Mean Temperature 58 °F -  
Max Temperature 64 °F 78 °F 87 °F (2006)
Min Temperature 53 °F 56 °F 46 °F (1999)
Degree Days  
Heating Degree Days 6    
Growing Degree Days 8 (Base 50)    
Moisture  
Dew Point 50 °F    
Average Humidity 74    
Maximum Humidity 88    
Minimum Humidity 59    
Precipitation  
Precipitation 0.00 in - - ()
Sea Level Pressure  
Sea Level Pressure 30.10 in    
Wind  
Wind Speed 17 mph ()    
Max Wind Speed 23 mph    
Max Gust Speed -    
Visibility 6.2 miles    
Events      
Averages and records for this station are not official NWS values.
T = Trace of Precipitation, MM = Missing Value Source: Averaged Metar Reports

Daily Weather History Graph

Daily Weather History Graph

Search for Another Location

Airport or City:

Trip Planner

Search our weather history database for the weather conditions in past years. The results will help you decide how hot, cold, wet, or windy it might be!

Date:

Astronomy

Jun. 26, 2013 Rise Set
Actual Time 4:47 AM CEST 8:44 PM CEST
Civil Twilight 4:07 AM CEST 9:24 PM CEST
Nautical Twilight 3:11 AM CEST 10:20 PM CEST
Astronomical Twilight 1:44 AM CEST 11:46 PM CEST
Moon 10:37 PM CEST (6/26) 8:33 AM CEST (6/26)
Length of Visible Light 17h 17m
Length of Day
15h 56m
Waning Gibbous, 87% of the Moon is Illuminated
Jun 26
Waning Gibbous
Jun 30
Last Quarter
Jul 8
New
Jul 16
First Quarter
Jul 22
Full

Hourly Weather History & Observations

Time (CEST) Temp. Dew Point Humidity Pressure Visibility Wind Dir Wind Speed Gust Speed Precip Events Conditions
12:00 AM 55.4 °F 51.8 °F 88% 30.01 in 6.2 mi WNW 20.7 mph - N/A   Mostly Cloudy
12:30 AM 55.4 °F 51.8 °F 88% 30.01 in 6.2 mi West 18.4 mph - N/A   Mostly Cloudy
1:00 AM 55.4 °F 51.8 °F 88% 30.01 in 6.2 mi West 19.6 mph - N/A   Mostly Cloudy
1:30 AM 55.4 °F 51.8 °F 88% 30.01 in 6.2 mi WNW 20.7 mph - N/A   Mostly Cloudy
2:00 AM 55.4 °F 51.8 °F 88% 30.04 in 6.2 mi West 18.4 mph - N/A   Scattered Clouds
2:30 AM 55.4 °F 51.8 °F 88% 30.04 in 6.2 mi West 17.3 mph - N/A   Scattered Clouds
3:00 AM 55.4 °F 50.0 °F 82% 30.04 in 6.2 mi West 18.4 mph - N/A   Mostly Cloudy
3:30 AM 53.6 °F 50.0 °F 88% 30.04 in 6.2 mi West 19.6 mph - N/A   Mostly Cloudy
4:00 AM 53.6 °F 50.0 °F 88% 30.04 in 6.2 mi WNW 18.4 mph - N/A   Scattered Clouds
4:30 AM 53.6 °F 50.0 °F 88% 30.04 in 6.2 mi WNW 16.1 mph - N/A   Scattered Clouds
5:00 AM 53.6 °F 50.0 °F 88% 30.04 in 6.2 mi WNW 17.3 mph - N/A   Scattered Clouds
5:30 AM 53.6 °F 50.0 °F 88% 30.04 in 6.2 mi WNW 19.6 mph - N/A   Scattered Clouds
6:00 AM 53.6 °F 50.0 °F 88% 30.04 in 6.2 mi WNW 18.4 mph - N/A   Scattered Clouds
6:30 AM 55.4 °F 50.0 °F 82% 30.04 in 6.2 mi WNW 20.7 mph - N/A   Scattered Clouds
7:00 AM 57.2 °F 48.2 °F 72% 30.06 in 6.2 mi NW 20.7 mph - N/A   Scattered Clouds
7:30 AM 57.2 °F 48.2 °F 72% 30.06 in 6.2 mi WNW 19.6 mph - N/A   Mostly Cloudy
8:00 AM 59.0 °F 48.2 °F 67% 30.06 in 6.2 mi WNW 20.7 mph - N/A   Scattered Clouds
8:30 AM 57.2 °F 48.2 °F 72% 30.09 in 6.2 mi WNW 20.7 mph - N/A   Mostly Cloudy
9:00 AM 57.2 °F 48.2 °F 72% 30.09 in 6.2 mi WNW 23.0 mph - N/A   Mostly Cloudy
9:30 AM 59.0 °F 48.2 °F 67% 30.09 in 6.2 mi WNW 23.0 mph - N/A   Mostly Cloudy
10:00 AM 60.8 °F 48.2 °F 63% 30.09 in 6.2 mi WNW 23.0 mph - N/A   Mostly Cloudy
10:30 AM 62.6 °F 50.0 °F 63% 30.09 in 6.2 mi WNW 20.7 mph - N/A   Mostly Cloudy
11:00 AM 60.8 °F 48.2 °F 63% 30.12 in 6.2 mi WNW 18.4 mph - N/A   Mostly Cloudy
11:30 AM 60.8 °F 50.0 °F 68% 30.12 in 6.2 mi WNW 19.6 mph - N/A   Mostly Cloudy
12:00 PM 62.6 °F 50.0 °F 63% 30.12 in 6.2 mi WNW 20.7 mph - N/A   Mostly Cloudy
12:30 PM 62.6 °F 50.0 °F 63% 30.12 in 6.2 mi WNW 19.6 mph - N/A   Mostly Cloudy
1:00 PM 62.6 °F 50.0 °F 63% 30.12 in 6.2 mi WNW 17.3 mph - N/A   Mostly Cloudy
1:30 PM 64.4 °F 50.0 °F 59% 30.12 in 6.2 mi West 17.3 mph - N/A   Mostly Cloudy
2:00 PM 64.4 °F 50.0 °F 59% 30.12 in 6.2 mi WNW 17.3 mph - N/A   Mostly Cloudy
2:30 PM 64.4 °F 50.0 °F 59% 30.12 in 6.2 mi WNW 17.3 mph - N/A   Mostly Cloudy
3:00 PM 64.4 °F 50.0 °F 59% 30.15 in 6.2 mi NW 17.3 mph - N/A   Mostly Cloudy
3:30 PM 62.6 °F 48.2 °F 59% 30.15 in 6.2 mi WNW 17.3 mph - N/A   Mostly Cloudy
4:00 PM 62.6 °F 50.0 °F 63% 30.15 in 6.2 mi WNW 21.9 mph - N/A   Mostly Cloudy
4:30 PM 62.6 °F 50.0 °F 63% 30.15 in 6.2 mi West 18.4 mph - N/A   Mostly Cloudy
5:00 PM 62.6 °F 50.0 °F 63% 30.15 in 6.2 mi NW 16.1 mph - N/A   Mostly Cloudy
5:30 PM 60.8 °F 50.0 °F 68% 30.15 in 6.2 mi WNW 18.4 mph - N/A   Mostly Cloudy
6:00 PM 62.6 °F 50.0 °F 63% 30.15 in 6.2 mi WNW 15.0 mph - N/A   Mostly Cloudy
6:30 PM 60.8 °F 50.0 °F 68% 30.15 in 6.2 mi West 15.0 mph - N/A   Mostly Cloudy
7:00 PM 62.6 °F 50.0 °F 63% 30.15 in 6.2 mi WNW 18.4 mph - N/A   Mostly Cloudy
7:30 PM 60.8 °F 50.0 °F 68% 30.15 in 6.2 mi WNW 15.0 mph - N/A   Mostly Cloudy
8:00 PM 59.0 °F 50.0 °F 72% 30.15 in 6.2 mi NW 12.7 mph - N/A   Mostly Cloudy
8:30 PM 59.0 °F 50.0 °F 72% 30.15 in 6.2 mi WNW 12.7 mph - N/A   Scattered Clouds
9:00 PM 57.2 °F 50.0 °F 77% 30.18 in 6.2 mi WNW 11.5 mph - N/A   Scattered Clouds
9:30 PM 57.2 °F 50.0 °F 77% 30.18 in - WNW 11.5 mph - N/A   Clear
10:00 PM 55.4 °F 50.0 °F 82% 30.18 in - WNW 10.4 mph - N/A   Clear
10:30 PM 55.4 °F 50.0 °F 82% 30.18 in - West 10.4 mph - N/A   Clear
11:00 PM 55.4 °F 50.0 °F 82% 30.18 in - West 11.5 mph - N/A   Clear
11:30 PM 55.4 °F 50.0 °F 82% 30.18 in - WNW 11.5 mph - N/A   Clear